TimeEDT,TemperatureF,Dew PointF,Humidity,Sea Level PressureIn,VisibilityMPH,Wind Direction,Wind SpeedMPH,Gust SpeedMPH,PrecipitationIn,Events,Conditions,WindDirDegrees,DateUTC
12:53 AM,73.0,59.0,61,30.15,10.0,ENE,11.5,-,N/A,,Overcast,60,2013-09-17 04:53:00
1:53 AM,73.0,57.9,59,30.17,10.0,NE,12.7,-,N/A,,Overcast,40,2013-09-17 05:53:00
2:53 AM,71.1,57.9,63,30.17,10.0,NE,12.7,-,N/A,,Scattered Clouds,40,2013-09-17 06:53:00
3:53 AM,70.0,57.0,63,30.17,10.0,NE,12.7,20.7,N/A,,Mostly Cloudy,40,2013-09-17 07:53:00
4:53 AM,69.1,55.0,61,30.19,10.0,NE,16.1,-,N/A,,Overcast,40,2013-09-17 08:53:00
5:53 AM,66.9,55.9,68,30.20,10.0,NE,12.7,21.9,N/A,,Overcast,50,2013-09-17 09:53:00
6:53 AM,66.0,55.9,70,30.22,10.0,NNE,9.2,-,N/A,,Mostly Cloudy,30,2013-09-17 10:53:00
7:53 AM,66.0,55.0,68,30.25,10.0,NE,9.2,-,N/A,,Overcast,50,2013-09-17 11:53:00
8:53 AM,66.0,54.0,65,30.27,10.0,NE,12.7,-,N/A,,Overcast,40,2013-09-17 12:53:00
9:53 AM,66.9,53.1,61,30.29,10.0,NE,15.0,20.7,N/A,,Overcast,40,2013-09-17 13:53:00
10:53 AM,68.0,53.1,59,30.30,10.0,NE,15.0,20.7,N/A,,Overcast,50,2013-09-17 14:53:00
11:53 AM,70.0,53.1,55,30.31,10.0,ENE,8.1,-,N/A,,Overcast,60,2013-09-17 15:53:00
12:53 PM,70.0,53.1,55,30.30,10.0,ENE,8.1,-,N/A,,Overcast,60,2013-09-17 16:53:00
1:53 PM,73.0,54.0,51,30.27,10.0,NNE,11.5,18.4,N/A,,Mostly Cloudy,30,2013-09-17 17:53:00
2:53 PM,73.9,55.0,52,30.25,10.0,ENE,8.1,-,N/A,,Overcast,70,2013-09-17 18:53:00
3:53 PM,73.0,55.9,55,30.24,10.0,NE,10.4,-,N/A,,Overcast,40,2013-09-17 19:53:00
4:53 PM,73.0,55.9,55,30.22,10.0,NE,10.4,-,N/A,,Partly Cloudy,50,2013-09-17 20:53:00
5:53 PM,72.0,55.9,57,30.22,10.0,NE,9.2,-,N/A,,Mostly Cloudy,50,2013-09-17 21:53:00
6:53 PM,71.1,54.0,55,30.22,10.0,ENE,8.1,-,N/A,,Scattered Clouds,60,2013-09-17 22:53:00
7:53 PM,69.1,55.0,61,30.22,10.0,NE,6.9,-,N/A,,Mostly Cloudy,40,2013-09-17 23:53:00
8:53 PM,68.0,55.9,65,30.24,10.0,NNE,8.1,-,N/A,,Mostly Cloudy,30,2013-09-18 00:53:00
9:53 PM,66.9,55.9,68,30.25,10.0,NNE,6.9,-,N/A,,Overcast,30,2013-09-18 01:53:00
10:53 PM,66.9,55.9,68,30.26,10.0,NNE,9.2,-,N/A,,Overcast,30,2013-09-18 02:53:00
11:53 PM,66.9,55.9,68,30.26,10.0,NNE,10.4,-,N/A,,Overcast,30,2013-09-18 03:53:00